Flag for China Weather past 2 weeks in Chongqing, Chongqing Municipality, China

Now
77 °F

Passing clouds.


Feels Like: 78 °F
Forecast: 78 / 93 °F
Wind: 3 mph from Northeast

Location: Chongqing Airport

Current Time: Aug 29, 2014 at 12:03:20 PM

Latest Report: Aug 29, 2014 at 11:00 AM


Visibility: N/A

Pressure: 29.98 "Hg

Humidity: 83%

Dew point: 72 °F

Location of ChongqingLocation

Historic Weather in Chongqing — Graph

°F

Chongqing temperature yesterday

Maximum temperature yesterday: 73 °F (at 1:00 PM)
Minimum temperature yesterday: 70 °F (at 5:00 AM)
Average temperature yesterday: 72 °F

Past Weeks' High & Low Weather Summary

 TemperatureHumidityPressure
High93 °F (Aug 20, 3:00 PM)94% (Aug 22, 3:00 PM)30.01 "Hg (Aug 22, 3:00 PM)
Low68 °F (Aug 22, 10:00 PM)26% (Aug 21, 4:00 PM)29.65 "Hg (Aug 16, 7:00 PM)
Average78 °F72%29.84 "Hg
* Reported Aug 14 10:00 AM — Aug 29 10:00 AM, Chongqing, Weather by CustomWeather, © 2014

Note: Actual official high and low records may vary slightly from our data, if they occured in-between our weather recording intervals... More about our weather records

Advertising

Chongqing weather history for previous 24 hours

 ConditionsComfort  
Time TempWeatherWind HumidityBarometerVisibility
10:00 AM
Aug 29
73 °FScattered clouds.1 mph94%29.98 "Hg5 mi
9:00 AM73 °FScattered clouds.3 mph89%29.98 "Hg5 mi
8:00 AM72 °FMore clouds than sun.3 mph94%29.95 "Hg5 mi
7:00 AM72 °FLight rain. Fog.3 mph94%29.95 "Hg1 mi
6:00 AM72 °FLight rain. Fog.3 mph94%29.95 "Hg2 mi
5:00 AM72 °FLight rain. Fog.3 mph94%29.95 "Hg2 mi
4:00 AM72 °FRain showers. Passing clouds.1 mph94%29.95 "Hg4 mi
3:00 AM72 °FPassing clouds.3 mph94%29.95 "Hg5 mi
2:00 AM72 °FPassing clouds.6 mph94%29.98 "Hg5 mi
1:00 AM72 °FRain showers. Passing clouds.6 mph94%29.98 "Hg5 mi
12:00 AM72 °FLight rain. Clear.6 mph94%29.98 "HgN/A
11:00 PM
Aug 28
72 °FLight rain. Clear.8 mph94%30.01 "HgN/A
10:00 PM72 °FLight rain. Clear.6 mph94%30.01 "HgN/A
9:00 PM73 °FLight rain. Clear.3 mph89%29.98 "HgN/A
8:00 PM73 °FPassing clouds.8 mph89%29.95 "Hg5 mi
7:00 PM73 °FBroken clouds.3 mph89%29.95 "HgN/A
6:00 PM73 °FLight rain. Fog.1 mph89%29.95 "Hg2 mi
5:00 PM73 °FLight rain. Fog.3 mph89%29.95 "Hg2 mi
4:00 PM73 °FLight rain. Fog.1 mph89%29.95 "Hg2 mi
3:00 PM73 °FLight rain. Fog.No wind89%29.98 "Hg2 mi
2:00 PM73 °FLight rain. Fog.3 mph89%29.98 "Hg2 mi
1:00 PM73 °FLight rain. Fog.1 mph89%30.01 "Hg3 mi
12:00 PM72 °FLight rain. Fog.3 mph94%30.01 "Hg2 mi
Weather by CustomWeather, © 2014

See weather overviewHow to use our weather pages